Regional Weather Roundup
Issued by NWS Newport/Morehead, NC

Current Version | Previous Version | Graphics & Text | Print | Product List | Glossary On
Versions: 1 2 3 4 5 6 7 8 9 10 11 12 13 14 15 16 17 18 19 20 21 22 23 24 25 26 27 28 29 30 31 32 33 34 35 36 37 38 39 40 41 42 43 44 45 46 47 48 49 50
802 ASUS42 KMHX 222225 RWRMHX WEATHER ROUNDUP FOR EASTERN NORTH CAROLINA NATIONAL WEATHER SERVICE NEWPORT/MOREHEAD CITY NC 600 PM EDT SAT APR 22 2017 NOTE: "FAIR" INDICATES FEW OR NO CLOUDS BELOW 12,000 FEET WITH NO SIGNIFICANT WEATHER AND/OR OBSTRUCTIONS TO VISIBILITY NCZ015>017-031-032-045>047-102-103-222300- NORTH COAST CITY SKY/WX TMP DP RH WIND PRES REMARKS EDENTON CLOUDY 84 61 45 SW7 29.77F ELIZABETH CITY CLOUDY 61 61 100 NE23G31 29.82S FOG KITTY HAWK MOCLDY 73 61 65 N3 29.79R MANTEO SUNNY 78 68 69 SW22 29.79F $$ NCZ045>047-081-094-103-104-222300- CENTRAL COAST CITY SKY/WX TMP DP RH WIND PRES REMARKS FRISCO SUNNY 75 65 70 SW13 29.85S HAZE $$ NCZ095-097-098-100-101-222300- SOUTHERN COAST CITY SKY/WX TMP DP RH WIND PRES REMARKS BEAUFORT SUNNY 75 69 81 S20 29.85S CEDAR ISLAND NOT AVBL JACKSONVILLE SUNNY 82 67 60 S15 29.81F PINEY ISLAND CLEAR N/A N/A N/A S22G28 29.83 WILMINGTON SUNNY 81 66 60 S17 29.84S $$ NCZ011>013-027>030-043-044-078>080-089-090>093-098-222300- COASTAL PLAIN CITY SKY/WX TMP DP RH WIND PRES REMARKS AHOSKIE N/A 69 67 95 N15 29.81R CLINTON PTSUNNY 85 61 44 SW8G17 29.81F ELIZABETHTOWN SUNNY 85 58 39 SW9 29.82S GOLDSBORO MOSUNNY 86 56 35 SW18 29.78R GREENVILLE MOSUNNY 84 57 39 SW10 29.80S HAVELOCK MOSUNNY 79 65 62 MISG 29.84S KENANSVILLE PTSUNNY 86 59 39 SW7 29.81R KINSTON MOSUNNY 88 55 33 SW9 29.80R NEW BERN SUNNY 83 62 49 S16G24 29.81S RICHLANDS MOSUNNY 84 64 50 S15G24 29.82R ROCKY MOUNT CLOUDY 78 62 57 W10 29.80R WASHINGTON MOSUNNY 83 59 42 SW9G21 29.78S WHITEVILLE MOSUNNY 84 57 39 SW5 29.83S $$ AMZ130-135-150-152-154-156-158-170-250-252-270-ANZ085-086-088-633-658-670-222300- MARINE OBSERVATIONS STATION/POSITION TIME TEMP WIND PRES WAVE SWELL AIR SEA DIR/SP/G HT/PER HT/PER (UTC) (F) (DEG/KT/KT) (MB) (FT/S) (FT/S) CHESAPEAKE LIGHT NOT AVBL 64 E VA BEACH 2150 56 59 10/ 16/ 19 1011.4 4/11 3/11 DUCK 2200 60 56 30/ 15/ 20 1009.5 2 E DUCK 2200 59 N/A 3/11 2/11 OREGON INLET 2200 73 76 190/ 19/ 24 1009.2 13E OREGON INLT 2148 64 N/A 5/13 5/13 HATTERAS CG 2200 73 71 210/ 14/ 19 1010.2 DIAMOND BUOY 2150 77 75 220/ 19/ 23 1010.6 5/12 2/12 CAPE LOOKOUT 2200 73 200/ 14/ 19 1010.8 BEAUFORT LAB 2200 72 67 200/ 15/ 22 1009.9 30 SE NEW RVR IN 2208 72 210/ 16/ 19 1011.2 30 SE NEW RVR IN 2213 71 N/A 5/ 6 2/12 27 SE WRIGHTSVLE 2208 73 71 200/ 14/ 19 1010.3 5 SE WRIGHTSVLE 2208 71 68 200/ 14/ 23 1010.8 225 S CAPE HAT 2150 72 74 190/ 12/ 14 1015.6 4/12 3/12 41 SE CHARLESTON 2210 74 74 220/ 14/ 16 1012.4 $$

USA.gov is the U.S. government's official web portal to all federal, state and local government web resources and services.